Location: Beutels
(47.8767°N, 9.8584°E)
Time: 06:29:53
(UTC+00:00)

Cosmos 1536 - Pass Details

Date: 19 May 2025
Orbit: 495 x 518 km, 82.5° (Epoch: 14 June)

Event Time Altitude Azimuth Distance (km) Brightness Sun altitude
Rises 21:30:42 0° 349° (N) 2,640 7.8 -18.1°
Reaches altitude 10° 21:32:51 10° 348° (NNW) 1,744 6.5 -18.2°
Maximum altitude 21:36:40 78° 262° (W) 526 2.6 -18.5°
Enters shadow 21:37:40 47° 186° (S) 680 2.9 -18.6°
